Jackson, Tennessee, United States (38301)
Lat: 35.61N, Lon: 88.81W
Wx Zone: TNZ052
Local Info
Past Weather Observations for Friday, December 19, 2014

NOTE: This archive is for the closest National Weather Service station to Jackson. Information may differ from the station used for current weather conditions.

Click here for Long-term Archive

Time Weather Temperature Dewpoint Humidity Pressure Winds Precip Visibility
23:53
Overcast
37°F / 3°C 30°F / -1°C 75% 30.24 in
(1024 mb)
Calm - 10SM
22:53
Mostly Cloudy
37°F / 3°C 32°F / 0°C 81% 30.24 in
(1024 mb)
N 5.8 mph
(N 9 kph)
- 10SM
21:53
Overcast
39°F / 4°C 32°F / 0°C 75% 30.24 in
(1024 mb)
Calm - 10SM
20:53
Overcast
39°F / 4°C 32°F / 0°C 75% 30.24 in
(1024 mb)
Calm - 10SM
19:53
Overcast
39°F / 4°C 30°F / -1°C 70% 30.24 in
(1024 mb)
Calm - 10SM
18:53
Overcast
39°F / 4°C 30°F / -1°C 70% 30.21 in
(1023 mb)
ENE 6.9 mph
(ENE 11 kph)
0.01 in
(0.25 mm)
10SM
17:53
Overcast
41°F / 5°C 28°F / -2°C 61% 30.21 in
(1023 mb)
NE 11.5 mph
(NE 19 kph)
- 10SM
16:53
Clear
43°F / 6°C 30°F / -1°C 61% 30.21 in
(1023 mb)
NE 6.9 mph
(NE 11 kph)
- 10SM
15:53
Clear
43°F / 6°C 30°F / -1°C 61% 30.21 in
(1023 mb)
NE 5.8 mph
(NE 9 kph)
- 10SM
14:53
Clear
43°F / 6°C 30°F / -1°C 61% 30.21 in
(1023 mb)
E 5.8 mph
(E 9 kph)
- 10SM
13:53
Mostly Cloudy
43°F / 6°C 30°F / -1°C 61% 30.24 in
(1024 mb)
ENE 3.5 mph
(ENE 6 kph)
- 10SM
12:53
Overcast
43°F / 6°C 28°F / -2°C 57% 30.24 in
(1024 mb)
NE 3.5 mph
(NE 6 kph)
- 10SM
11:53
Overcast
43°F / 6°C 28°F / -2°C 57% 30.27 in
(1025 mb)
Variable 3.5 mph
(Variable 6 kph)
- 10SM
10:53
Overcast
39°F / 4°C 28°F / -2°C 65% 30.27 in
(1025 mb)
E 8.1 mph
(E 13 kph)
- 10SM
09:53
Overcast
37°F / 3°C 28°F / -2°C 70% 30.3 in
(1026 mb)
E 5.8 mph
(E 9 kph)
- 10SM
08:53
Overcast
37°F / 3°C 30°F / -1°C 75% 30.3 in
(1026 mb)
NE 4.6 mph
(NE 7 kph)
- 10SM
07:53
Overcast
37°F / 3°C 30°F / -1°C 75% 30.27 in
(1025 mb)
ENE 8.1 mph
(ENE 13 kph)
- 10SM
06:53
Overcast
37°F / 3°C 32°F / 0°C 81% 30.27 in
(1025 mb)
NE 5.8 mph
(NE 9 kph)
- 10SM
05:53
Overcast
37°F / 3°C 32°F / 0°C 81% 30.24 in
(1024 mb)
NE 5.8 mph
(NE 9 kph)
- 10SM
04:53
Overcast
37°F / 3°C 34°F / 1°C 87% 30.21 in
(1023 mb)
NE 6.9 mph
(NE 11 kph)
- 10SM
03:53
Overcast
39°F / 4°C 34°F / 1°C 81% 30.24 in
(1024 mb)
NE 5.8 mph
(NE 9 kph)
- 10SM
02:53
Overcast
39°F / 4°C 34°F / 1°C 81% 30.21 in
(1023 mb)
NE 5.8 mph
(NE 9 kph)
- 10SM
01:53
Overcast
39°F / 4°C 34°F / 1°C 81% 30.24 in
(1024 mb)
Calm - 10SM
00:53
Overcast
39°F / 4°C 36°F / 2°C 87% 30.24 in
(1024 mb)
NE 4.6 mph
(NE 7 kph)
- 10SM
Time Weather Temperature Dewpoint Humidity Pressure Winds Precip Visibility


Weather for websites

WeatherForYou.com, LLC is not responsible for any damages or problems caused by this service. Current weather conditions are obtained from the closest station including government and personal stations which may have varying degrees of accuracy. Weather forecasts are derived from the NOAA NDFD. Like all things, this site belongs to Jesus Christ... He just trusts me to maintain it. If you have any questions or comments email webmaster@weatherforyou.com

Copyright © 2014, WeatherForYou.com LLC. All rights reserved.